Park Rapids, MN

7:33 PM CDT on October 20, 2017 (GMT -0500)
Park Rapids Municipal

Weather History for KPKD - June, 2013

Change the Weather History Date:

Thursday, June 13, 2013

  Actual Average Record
Temperature  
Mean Temperature 63 °F -  
Max Temperature 75 °F 77 °F 94 °F (1987)
Min Temperature 51 °F 51 °F 31 °F (1969)
Degree Days  
Heating Degree Days 2    
Growing Degree Days 13 (Base 50)    
Moisture  
Dew Point 49 °F    
Average Humidity 59    
Maximum Humidity 89    
Minimum Humidity 38    
Precipitation  
Precipitation 0.00 in - - ()
Sea Level Pressure  
Sea Level Pressure 30.10 in    
Wind  
Wind Speed 6 mph (NE)    
Max Wind Speed 10 mph    
Max Gust Speed -    
Visibility 10 miles    
Events      
Averages and records for this station are not official NWS values.
T = Trace of Precipitation, MM = Missing Value Source: NWS Daily Summary

Daily Weather History Graph

Daily Weather History Graph

Search for Another Location

Airport or City:

Trip Planner

Search our weather history database for the weather conditions in past years. The results will help you decide how hot, cold, wet, or windy it might be!

Date:

Astronomy

Jun. 13, 2013 Rise Set
Actual Time 5:25 AM CDT 9:15 PM CDT
Civil Twilight 4:45 AM CDT 9:55 PM CDT
Nautical Twilight 3:51 AM CDT 10:49 PM CDT
Astronomical Twilight 2:32 AM CDT 12:09 AM CDT
Moon 10:17 AM CDT (6/13) No Moon Set
Length of Visible Light 17h 09m
Length of Day
15h 50m
Waxing Crescent, 22% of the Moon is Illuminated
Jun 13
Waxing Crescent
Jun 16
First Quarter
Jun 23
Full
Jun 29
Last Quarter
Jul 8
New

Hourly Weather History & Observations

Time (CDT) Temp. Dew Point Humidity Pressure Visibility Wind Dir Wind Speed Gust Speed Precip Events Conditions
12:53 AM 53.1 °F 48.0 °F 83% 30.05 in 10.0 mi NNW 5.8 mph - N/A   Clear
1:53 AM 55.9 °F 48.0 °F 75% 30.06 in 10.0 mi North 5.8 mph - N/A   Clear
2:53 AM 51.1 °F 46.9 °F 86% 30.09 in 10.0 mi NNW 5.8 mph - N/A   Clear
3:53 AM 51.1 °F 48.0 °F 89% 30.11 in 10.0 mi NNW 4.6 mph - N/A   Clear
4:53 AM 54.0 °F 48.9 °F 83% 30.11 in 10.0 mi North 8.1 mph - N/A   Clear
5:53 AM 54.0 °F 50.0 °F 86% 30.11 in 10.0 mi NNE 5.8 mph - N/A   Clear
6:53 AM 55.9 °F 52.0 °F 87% 30.13 in 10.0 mi West 3.5 mph - N/A   Clear
7:53 AM 60.1 °F 51.1 °F 72% 30.12 in 10.0 mi NE 5.8 mph - N/A   Clear
8:53 AM 63.0 °F 50.0 °F 63% 30.13 in 10.0 mi North 5.8 mph - N/A   Clear
9:53 AM 66.0 °F 48.9 °F 54% 30.14 in 10.0 mi NNE 5.8 mph - N/A   Clear
10:53 AM 66.9 °F 48.9 °F 52% 30.14 in 10.0 mi North 6.9 mph - N/A   Clear
11:53 AM 69.1 °F 45.0 °F 42% 30.15 in 10.0 mi ENE 8.1 mph - N/A   Clear
12:53 PM 71.1 °F 46.0 °F 41% 30.14 in 10.0 mi Variable 4.6 mph - N/A   Clear
1:53 PM 73.0 °F 46.9 °F 39% 30.12 in 10.0 mi Variable 6.9 mph - N/A   Clear
2:53 PM 73.9 °F 48.9 °F 41% 30.11 in 10.0 mi East 10.4 mph - N/A   Clear
3:53 PM 73.9 °F 46.9 °F 38% 30.11 in 10.0 mi ESE 6.9 mph - N/A   Clear
4:53 PM 73.9 °F 48.0 °F 40% 30.09 in 10.0 mi ENE 4.6 mph - N/A   Clear
5:53 PM 75.0 °F 50.0 °F 41% 30.07 in 10.0 mi East 10.4 mph - N/A   Clear
6:53 PM 75.0 °F 48.9 °F 40% 30.07 in 10.0 mi East 5.8 mph - N/A   Clear
7:53 PM 73.0 °F 51.1 °F 46% 30.07 in 10.0 mi SE 6.9 mph - N/A   Partly Cloudy
8:53 PM 70.0 °F 51.1 °F 51% 30.06 in 10.0 mi SE 6.9 mph - N/A   Scattered Clouds
9:53 PM 66.9 °F 51.1 °F 57% 30.07 in 10.0 mi ESE 4.6 mph - N/A   Clear
10:53 PM 64.9 °F 51.1 °F 61% 30.09 in 10.0 mi SE 4.6 mph - N/A   Clear
11:53 PM 64.0 °F 50.0 °F 60% 30.07 in 10.0 mi SE 8.1 mph - N/A   Clear